Вернуться в каталог

SL-14 DEB

АктивенPO
NORAD 39983·DEBRIS·🇷🇺 Russia

Запущен Aug 18, 1987 с Plesetsk Cosmodrome

Loading…

Ближайшие Пролёты (ближайшие 24 часа)

TLE

СвежийSource: Space-Track

Эпоха: Sep 14, 2026, 00:46 UTC

1 39983U 87068DK  26257.03195696  .00004693  00000-0  13937-2 0  9999
2 39983  82.1406 173.8805 0034406 232.3829 140.8617 14.42778875635894

Отслеживайте SL-14 DEB в реальном времени с AllMySat

Download on the App Store